Weather History for KPDK - October, 2012

Change the Weather History Date:

Wednesday, October 3, 2012

  Actual Average Record
Temperature  
Mean Temperature 65 °F 67 °F  
Max Temperature 73 °F 77 °F 86 °F (1996)
Min Temperature 57 °F 56 °F 42 °F (2011)
Degree Days  
Heating Degree Days 0 2  
Month to date heating degree days 6  
Since 1 July heating degree days 16  
Cooling Degree Days 0 3  
Month to date cooling degree days 11  
Year to date cooling degree days 1715  
Growing Degree Days 15 (Base 50)    
Moisture  
Dew Point 59 °F    
Average Humidity 84    
Maximum Humidity 100    
Minimum Humidity 51    
Precipitation  
Precipitation 0.00 in 0.18 in 0.57 in (2014)
Month to date precipitation 0.54  
Year to date precipitation 41.68  
Sea Level Pressure  
Sea Level Pressure 30.10 in    
Wind  
Wind Speed 3 mph (WSW)    
Max Wind Speed 7 mph    
Max Gust Speed -    
Visibility 9 miles    
Events      
T = Trace of Precipitation, MM = Missing Value Source: NWS Daily Summary

Daily Weather History Graph

Daily Weather History Graph

Search for Another Location

Airport or City:

Trip Planner

Search our weather history database for the weather conditions in past years. The results will help you decide how hot, cold, wet, or windy it might be!

Date:

Astronomy

Oct. 03, 2012 Rise Set
Actual Time 7:33 AM EDT 7:18 PM EDT
Civil Twilight 7:08 AM EDT 7:43 PM EDT
Nautical Twilight 6:39 AM EDT 8:11 PM EDT
Astronomical Twilight 6:10 AM EDT 8:40 PM EDT
Moon 9:21 PM EDT (10/3) 10:44 AM EDT (10/3)
Length of Visible Light 12h 34m
Length of Day
11h 44m
Waning Gibbous, 89% of the Moon is Illuminated
Oct 3
Waning Gibbous
Oct 8
Last Quarter
Oct 15
New
Oct 21
First Quarter
Oct 29
Full

Hourly Weather History & Observations

Time (EDT) Temp. Dew Point Humidity Pressure Visibility Wind Dir Wind Speed Gust Speed Precip Events Conditions
12:07 AM 62.6 °F 60.8 °F 94% 30.02 in 10.0 mi SW 4.6 mph - N/A   Overcast
12:50 AM 62.6 °F 60.8 °F 94% 30.02 in 10.0 mi WSW 3.5 mph - N/A   Overcast
12:53 AM 63.0 °F 61.0 °F 93% 30.00 in 10.0 mi West 3.5 mph - N/A   Overcast
1:53 AM 62.1 °F 61.0 °F 96% 30.01 in 10.0 mi West 3.5 mph - N/A   Mostly Cloudy
2:03 AM 62.6 °F 60.8 °F 94% 30.03 in 10.0 mi West 3.5 mph - N/A   Scattered Clouds
2:27 AM 60.8 °F 60.8 °F 100% 30.03 in 10.0 mi West 4.6 mph - N/A   Partly Cloudy
2:53 AM 61.0 °F 60.1 °F 97% 30.01 in 9.0 mi West 3.5 mph - N/A   Scattered Clouds
3:53 AM 60.1 °F 59.0 °F 96% 30.01 in 10.0 mi Calm Calm - N/A   Clear
4:53 AM 59.0 °F 57.9 °F 96% 30.03 in 8.0 mi Calm Calm - N/A   Clear
5:53 AM 57.9 °F 57.9 °F 100% 30.04 in 5.0 mi Calm Calm - N/A   Clear
6:53 AM 57.9 °F 57.9 °F 100% 30.07 in 6.0 mi Calm Calm - N/A   Clear
7:53 AM 57.9 °F 57.9 °F 100% 30.09 in 7.0 mi Calm Calm - N/A   Clear
8:53 AM 60.1 °F 60.1 °F 100% 30.10 in 6.0 mi WNW 3.5 mph - N/A   Scattered Clouds
9:01 AM 60.8 °F 60.8 °F 100% 30.12 in 6.0 mi Calm Calm - N/A   Mostly Cloudy
9:53 AM 62.1 °F 60.1 °F 93% 30.13 in 6.0 mi Calm Calm - N/A   Overcast
10:41 AM 64.4 °F 59.0 °F 83% 30.16 in 10.0 mi Calm Calm - N/A   Mostly Cloudy
10:53 AM 64.9 °F 59.0 °F 81% 30.14 in 10.0 mi West 4.6 mph - N/A   Mostly Cloudy
11:16 AM 66.2 °F 57.2 °F 73% 30.15 in 10.0 mi Calm Calm - N/A   Partly Cloudy
11:53 AM 68.0 °F 57.0 °F 68% 30.13 in 10.0 mi Calm Calm - N/A   Scattered Clouds
12:53 PM 71.1 °F 55.9 °F 59% 30.13 in 10.0 mi West 4.6 mph - N/A   Partly Cloudy
1:53 PM 72.0 °F 55.9 °F 57% 30.12 in 10.0 mi SW 4.6 mph - N/A   Clear
2:53 PM 73.0 °F 54.0 °F 51% 30.10 in 10.0 mi SW 6.9 mph - N/A   Clear
3:53 PM 72.0 °F 55.0 °F 55% 30.10 in 10.0 mi SW 5.8 mph - N/A   Clear
4:53 PM 71.1 °F 55.9 °F 59% 30.11 in 10.0 mi Calm Calm - N/A   Clear
5:53 PM 71.1 °F 57.0 °F 61% 30.12 in 10.0 mi WSW 4.6 mph - N/A   Clear
6:53 PM 69.1 °F 57.0 °F 65% 30.13 in 10.0 mi WSW 4.6 mph - N/A   Clear
7:53 PM 66.9 °F 57.9 °F 73% 30.14 in 10.0 mi West 4.6 mph - N/A   Clear
8:53 PM 63.0 °F 59.0 °F 87% 30.17 in 10.0 mi Calm Calm - N/A   Clear
9:53 PM 63.0 °F 60.1 °F 90% 30.19 in 10.0 mi Calm Calm - N/A   Mostly Cloudy
10:53 PM 61.0 °F 59.0 °F 93% 30.20 in 10.0 mi Calm Calm - N/A   Clear
11:53 PM 60.1 °F 59.0 °F 96% 30.20 in 7.0 mi Calm Calm - N/A   Clear